Regional Weather Roundup
Issued by NWS Albany, NY

Home | Current Version | Previous Version | Text Only | Print | Product List | Glossary On
Versions: 1 2 3 4 5 6 7 8 9 10 11 12 13 14 15 16 17 18 19 20 21 22 23 24 25 26 27 28 29 30 31 32 33 34 35 36 37 38 39 40 41 42 43 44 45 46 47 48 49 50
530
ASUS41 KALY 271110
RWRALY

NEW YORK STATE HOURLY WEATHER ROUNDUP
NATIONAL WEATHER SERVICE ALBANY NY
700 AM EDT WED JUL 27 2016

NOTE: "FAIR" INDICATES FEW OR NO CLOUDS BELOW 12,000 FEET WITH NO
SIGNIFICANT WEATHER AND/OR NO OBSTRUCTIONS TO VISIBILITY.

NYZ032-033-038>043-046>054-057>066-NYZ062>081-082-084-271200-
EAST


CITY           SKY/WX    TMP DP  RH WIND       PRES   REMARKS
ALBANY         MOSUNNY   67  61  81 CALM      29.97R
GLENS FALLS    SUNNY     65  61  87 CALM      29.96R
POUGHKEEPSIE   SUNNY     65  61  87 CALM      29.96R
NEWBURGH       MOSUNNY   64  64 100 NW5       29.99R
MONTGOMERY     SUNNY     64  62  93 CALM      29.98R
WHITE PLAINS   MOSUNNY   71  61  70 W3        29.97R
ISLIP          CLOUDY    74  65  73 N3        29.94S
NEW YORK CITY  CLOUDY    77  61  57 NE6       29.95R
CENTRAL PARK   CLOUDY    77  62  59 NE5       29.98R
$$

NYZ005>009-017-018-044>046-055-056-271200-
CENTRAL


CITY           SKY/WX    TMP DP  RH WIND       PRES   REMARKS
FULTON         SUNNY     65  60  84 CALM      29.97S
SYRACUSE       SUNNY     63  60  90 E3        29.97R
ROME           SUNNY     60  59  96 E3        30.00R
ELMIRA         CLOUDY    61  58  90 SW5       30.02R FOG
BINGHAMTON     SUNNY     62  60  93 W6        30.04R
MONTICELLO     SUNNY     61  59  94 NW3       30.04R
$$

NYZ026>034-041>043-087-271200-
NORTH


CITY           SKY/WX    TMP DP  RH WIND       PRES   REMARKS
WATERTOWN      SUNNY     67  64  90 S6        29.94F
FORT DRUM      NOT AVBL
MASSENA        SUNNY     66  61  84 SW6       29.92R
SARANAC LAKE   PTSUNNY   54  52  93 CALM      29.98S FOG
PLATTSBURGH    SUNNY     66  61  84 SW3       29.91S
$$

NYZ001>004-010>016-019>021-085-271200-
WEST


CITY           SKY/WX    TMP DP  RH WIND       PRES   REMARKS
NIAGARA FALLS  PTCLDY    68  64  87 S6        29.98R
BUFFALO        PTCLDY    67  62  84 S7        30.00R
DUNKIRK        CLEAR     67  62  84 S7        30.01S
JAMESTOWN      CLEAR     57  55  94 S3        30.06S
WELLSVILLE     CLEAR     59  57  93 CALM      30.09R
ROCHESTER      PTCLDY    65  62  90 SW7       29.99R
PENN YAN       SUNNY     65  62  90 SW9       30.01R
$$

             KEY
       WCI = WIND CHILL INDEX
       VSB = VISIBILITY
       HX  = HEAT INDEX
$$




USA.gov is the U.S. government's official web portal to all federal, state and local government web resources and services.